DELTA 1 DEB, 21460

Orbit data source: Space-Track

DELTA 1 DEB, 21460 is space debris in SSO originally from a launch on Thu, 12 Jun 1975 UTC launched from the Air Force Western Test Range (AFWTR). Debris objects in space refer to the collection of defunct objects orbiting the Earth. Examples of debris include non-operational satellites, rocket bodies, and fragments generated from explosions, collisions, or faulty payload assembly.

Loading next visibility...
Identifier
21460, 1975-052EU
Orbit
SSO
Country
Flag of USUS
Related business
Manufacturer
Unknown
Mission
Spacecraft
Bus & Motor
Unknown
Mass
Unknown
Launch date (UTC)
1975-06-12 (51 years ago)
Launch vehicle
Unknown
Launch site
Air Force Western Test Range (AFWTR)
Object type
Payload
Rocket body
Debris
Shape & HBR
Unknown shape, 0.1 m
Radar Cross Section
Small (<0.1 m²)

Expand to show TLE details & history
Last TLE update: 16 hours ago

TLE from 16 hours ago
0 DELTA 1 DEB
1 21460U 75052EU  26126.78211667  .00000118  00000-0  34252-3 0  9996
2 21460  99.7637  47.8432 0081881 148.6519 278.2466 13.28543451696275
Epoch: 2026-05-06T18:46Z
TLE epoch observation values (Epoch: 2026-05-06T18:46:14.880Z)
Latitude
64.25765°
Longitude
-119.15352°
Altitude
1,154.897 km
Speed
7.286 km/s
True Right ascension
01h 48m 11s
True Declination
64° 07' 48"
Sunlit
Object was in daylight at epoch
Visualization orbit readout
Latitude
Unknown
Longitude
Unknown
Altitude
Unknown
Speed
Unknown
Apparent Right ascension
Unknown
Apparent Declination
Unknown
Sunlit
N/A
Visualization observer readout
Local Sidereal Time
18:16:53
Azimuth
Unknown
Elevation
Unknown
Doppler factor
Unknown
Orbital elements
Apogee altitude
1,211.233 km
Perigee altitude
1,087.957 km
Semi-major axis
7,527.732 km
Eccentricity
0.00819
Inclination
99.7637°
RAAN
47.8432°
Arg. of periapsis
148.6519°
True anomaly
277.31669°
Mean anomaly
278.2466°
Eccentric anomaly
277.78178°
Mean motion
3.32313 °/min
Orbital period
108.33 mins
BSTAR
0.00034252
Loading maneuver chart data...
Computing Atmospheric mass density...
Loading historical data...
Loading historical data...
Loading historical data...
Loading historical data...
Loading historical data...
Loading historical data...
Loading historical data...

Documentation

Showing up to 5 results
|